Date String (YYYY-MM-DD hh:mm:ss) UTC,Instrument flags,Ambient pressure (hPa),Sample flow (lpm),Bypass flow (lpm),Sample temperature (°C),Ambient temperature (°C),ASC tube jacket temperature (°C),LED temperature (°C),Box temperature (°C),Sample RH (%),Span deviation,Mass concentration (μg/m³),Mass concentration (μg/m³),Mass concentration (μg/m³)
DateTimeUTC,F1_M11,P_M11,Q1_M11,Q2_M11,T1_M11,T2_M11,T3_M11,T4_M11,T5_M11,U1_M11,ZSPAN_M11,X0_M11,X2_M11,X1_M11
2021-11-15 19:00:00,,0828.2,5.00,0.00,29.8,29.0,00.0,38.8,31.5,09.0,0000.0,0002.82,0000.56,0000.32
2021-11-15 19:01:00,,0828.2,4.99,0.00,29.8,29.0,00.0,38.8,31.5,08.9,0000.0,0002.28,0000.56,0000.32
2021-11-15 19:02:00,,0828.1,4.99,0.00,29.9,29.0,00.0,38.8,31.5,08.9,0000.0,0002.97,0000.57,0000.32
2021-11-15 19:03:00,,0828.1,5.01,0.00,29.9,29.0,00.0,38.8,31.5,08.9,0000.0,0002.95,0000.56,0000.33
2021-11-15 19:04:00,,0828.1,5.00,0.00,29.9,29.0,00.0,38.8,31.5,08.8,0000.0,0002.87,0000.53,0000.33
2021-11-15 19:05:00,,0828.3,5.00,0.00,29.9,29.0,00.0,38.8,31.5,08.8,0000.0,0002.38,0000.52,0000.33
2021-11-15 19:06:00,,0828.1,5.00,0.00,29.9,29.0,00.0,38.9,31.6,08.8,0000.0,0002.16,0000.52,0000.33
2021-11-15 19:07:00,,0828.1,5.01,0.00,29.9,29.0,00.0,38.9,31.6,08.6,0000.0,0002.17,0000.52,0000.33
2021-11-15 19:08:00,,0828.1,5.00,0.00,29.9,29.0,00.0,38.9,31.5,08.5,0000.0,0002.23,0000.56,0000.33
2021-11-15 19:09:00,,0828.1,5.01,0.00,29.9,29.0,00.0,38.9,31.6,08.5,0000.0,0002.64,0000.61,0000.33
2021-11-15 19:10:00,,0828.0,4.99,0.00,29.9,29.0,00.0,38.9,31.6,08.5,0000.0,0002.87,0000.62,0000.33
2021-11-15 19:11:00,,0827.9,5.02,0.00,29.9,29.0,00.0,38.9,31.5,08.5,0000.0,0002.85,0000.61,0000.33
2021-11-15 19:12:00,,0827.9,4.99,0.00,29.9,29.0,00.0,38.9,31.6,08.5,0000.0,0002.31,0000.61,0000.33
2021-11-15 19:13:00,,0827.9,5.00,0.00,29.9,29.0,00.0,38.9,31.5,08.5,0000.0,0001.51,0000.60,0000.33
2021-11-15 19:14:00,,0828.0,5.00,0.00,29.9,29.0,00.0,38.9,31.5,08.5,0000.0,0001.47,0000.58,0000.33
2021-11-15 19:15:00,,0828.0,5.00,0.00,29.9,29.0,00.0,38.9,31.6,08.5,0000.0,0001.48,0000.58,0000.33
2021-11-15 19:16:00,,0828.0,5.01,0.00,29.9,29.0,00.0,38.9,31.5,08.5,0000.0,0001.95,0000.60,0000.34
2021-11-15 19:17:00,,0827.9,4.98,0.00,29.9,29.0,00.0,38.9,31.6,08.5,0000.0,0002.10,0000.58,0000.34
2021-11-15 19:18:00,,0827.9,5.02,0.00,29.9,29.0,00.0,38.9,31.5,08.5,0000.0,0002.21,0000.63,0000.34
2021-11-15 19:19:00,,0827.9,4.99,0.00,29.9,29.0,00.0,38.9,31.5,08.5,0000.0,0002.18,0000.60,0000.34
2021-11-15 19:20:00,,0827.9,5.00,0.00,29.9,29.0,00.0,38.9,31.5,08.5,0000.0,0001.74,0000.53,0000.34
2021-11-15 19:21:00,,0827.9,4.99,0.00,29.9,29.0,00.0,38.9,31.5,08.5,0000.0,0002.11,0000.54,0000.35
2021-11-15 19:22:00,,0827.9,5.00,0.00,29.9,29.0,00.0,38.9,31.6,08.5,0000.0,0002.09,0000.52,0000.35
2021-11-15 19:23:00,,0827.9,5.00,0.00,29.9,29.0,00.0,38.9,31.6,08.6,0000.0,0002.16,0000.56,0000.35
2021-11-15 19:24:00,,0827.9,4.99,0.00,29.9,29.0,00.0,38.9,31.5,08.5,0000.0,0002.24,0000.59,0000.35
2021-11-15 19:25:00,,0827.9,5.00,0.00,29.9,28.9,00.0,38.9,31.5,08.5,0000.0,0002.25,0000.60,0000.35
2021-11-15 19:26:00,,0827.8,4.99,0.00,29.9,28.9,00.0,38.9,31.5,08.5,0000.0,0002.22,0000.58,0000.35
2021-11-15 19:27:00,,0827.9,5.00,0.00,29.9,28.9,00.0,38.9,31.5,08.5,0000.0,0001.73,0000.56,0000.34
2021-11-15 19:28:00,,0827.9,5.00,0.00,29.9,28.9,00.0,38.9,31.6,08.5,0000.0,0001.48,0000.54,0000.35
2021-11-15 19:29:00,,0827.9,5.00,0.00,29.9,28.9,00.0,38.9,31.5,08.3,0000.0,0001.37,0000.49,0000.34
2021-11-15 19:30:00,,0827.9,5.00,0.00,29.9,29.0,00.0,38.9,31.6,08.4,0000.0,0001.32,0000.47,0000.34
2021-11-15 19:31:00,,0827.9,5.00,0.00,29.9,28.9,00.0,38.9,31.5,08.3,0000.0,0001.33,0000.47,0000.33
2021-11-15 19:32:00,,0827.9,5.00,0.00,29.9,28.9,00.0,38.9,31.6,08.2,0000.0,0000.87,0000.45,0000.33
2021-11-15 19:33:00,,0827.9,5.01,0.00,29.9,29.0,00.0,38.9,31.6,08.0,0000.0,0001.45,0000.45,0000.32
2021-11-15 19:34:00,,0827.9,5.00,0.00,29.9,29.0,00.0,39.0,31.6,08.0,0000.0,0001.36,0000.41,0000.31
2021-11-15 19:35:00,,0827.9,4.99,0.00,29.9,29.0,00.0,39.0,31.7,07.8,0000.0,0001.45,0000.39,0000.31
2021-11-15 19:36:00,,0827.9,5.00,0.00,30.0,29.0,00.0,39.0,31.6,07.8,0000.0,0001.47,0000.40,0000.32
2021-11-15 19:37:00,,0827.9,5.00,0.00,30.0,29.0,00.0,39.0,31.6,07.9,0000.0,0001.49,0000.41,0000.32
2021-11-15 19:38:00,,0827.9,4.99,0.00,29.9,29.0,00.0,39.0,31.6,08.0,0000.0,0001.51,0000.41,0000.32
2021-11-15 19:39:00,,0827.9,5.00,0.00,29.9,29.0,00.0,39.0,31.6,08.0,0000.0,0001.54,0000.41,0000.31
2021-11-15 19:40:00,,0827.9,5.00,0.00,29.9,29.0,00.0,39.0,31.5,07.9,0000.0,0001.57,0000.43,0000.31
2021-11-15 19:41:00,,0827.9,4.99,0.00,30.0,29.0,00.0,39.0,31.6,07.9,0000.0,0001.61,0000.45,0000.31
2021-11-15 19:42:00,,0827.9,5.00,0.00,30.0,29.0,00.0,39.0,31.6,07.9,0000.0,0001.62,0000.45,0000.31
2021-11-15 19:43:00,,0827.9,4.99,0.00,30.0,29.0,00.0,39.0,31.6,07.8,0000.0,0001.63,0000.46,0000.31
2021-11-15 19:44:00,,0827.9,5.01,0.00,30.0,29.1,00.0,39.0,31.7,07.8,0000.0,0001.22,0000.47,0000.31
2021-11-15 19:45:00,,0827.8,5.01,0.00,30.0,29.0,00.0,39.0,31.6,07.9,0000.0,0001.96,0000.48,0000.31
2021-11-15 19:46:00,,0827.9,5.00,0.00,30.0,29.0,00.0,39.0,31.6,07.9,0000.0,0001.83,0000.46,0000.31
2021-11-15 19:47:00,,0827.9,5.00,0.00,30.0,29.1,00.0,39.0,31.7,07.8,0000.0,0001.87,0000.46,0000.30
2021-11-15 19:48:00,,0827.8,4.99,0.00,30.0,29.1,00.0,39.0,31.7,07.8,0000.0,0001.88,0000.46,0000.30
2021-11-15 19:49:00,,0827.7,5.01,0.00,30.0,29.1,00.0,39.0,31.7,07.8,0000.0,0001.98,0000.49,0000.29
2021-11-15 19:50:00,,0827.7,4.97,0.00,30.0,29.1,00.0,39.0,31.7,07.8,0000.0,0001.93,0000.47,0000.29
2021-11-15 19:51:00,,0827.7,5.02,0.00,30.0,29.1,00.0,39.0,31.7,07.8,0000.0,0001.97,0000.47,0000.29
2021-11-15 19:52:00,,0827.8,5.01,0.00,30.0,29.1,00.0,39.0,31.7,07.8,0000.0,0001.92,0000.44,0000.29
2021-11-15 19:53:00,,0827.7,5.01,0.00,30.0,29.1,00.0,39.0,31.7,07.7,0000.0,0002.00,0000.44,0000.29
2021-11-15 19:54:00,,0827.7,5.00,0.00,30.0,29.1,00.0,39.0,31.7,07.8,0000.0,0002.00,0000.44,0000.29
2021-11-15 19:55:00,,0827.7,5.01,0.00,30.0,29.1,00.0,39.0,31.7,07.8,0000.0,0001.68,0000.43,0000.29
2021-11-15 19:56:00,,0827.7,4.99,0.00,30.0,29.1,00.0,39.0,31.7,07.8,0000.0,0001.01,0000.45,0000.29
2021-11-15 19:57:00,,0827.7,5.00,0.00,30.0,29.1,00.0,39.0,31.7,07.7,0000.0,0001.04,0000.46,0000.29
2021-11-15 19:58:00,,0827.7,5.00,0.00,30.0,29.1,00.0,39.0,31.7,07.6,0000.0,0001.07,0000.46,0000.30
2021-11-15 19:59:00,,0827.7,5.00,0.00,30.0,29.1,00.0,39.0,31.6,07.6,0000.0,0001.19,0000.51,0000.30
